Location: Champs
(48.8539°N, 2.6040°E)
Time: 04:08:51
(UTC+00:00)

NOSS 3-4 (A) - Pass Details

Date: 26 October 2021
Orbit: 861 x 1351 km, 63.4° (Epoch: 28 November)

Event Time Altitude Azimuth Distance (km) Brightness Sun altitude
Exits shadow 05:49:14 - 317° (NW) 3,719 6.0 -6.9°
Reaches altitude 10° 05:51:34 10° 318° (NW) 2,883 5.5 -6.5°
Maximum altitude 05:58:29 88° 233° (SW) 1,161 3.9 -5.4°
Drops below altitude 10° 06:06:17 10° 142° (SE) 3,226 7.1 -4.1°
Sets 06:09:12 0° 142° (SE) 4,246 7.8 -3.7°
